DELTA 1 DEB, 3051

Orbit data source: Space-Track

DELTA 1 DEB, 3051 is space debris in SSO originally from a launch on Fri, 10 Nov 1967 UTC launched from the Air Force Western Test Range (AFWTR). Debris objects in space refer to the collection of defunct objects orbiting the Earth. Examples of debris include non-operational satellites, rocket bodies, and fragments generated from explosions, collisions, or faulty payload assembly.

Loading next visibility...
Identifier
3051, 1967-114C
Orbit
SSO
Country
Flag of USUS
Related business
Manufacturer
Unknown
Mission
Spacecraft
Bus & Motor
Unknown
Mass
Unknown
Launch date (UTC)
1967-11-10 (59 years ago)
Launch vehicle
Unknown
Launch site
Air Force Western Test Range (AFWTR)
Object type
Payload
Rocket body
Debris
Shape & HBR
Unknown shape, 0.1 m
Radar Cross Section
Medium (>0.1 m² and <1 m²)

Expand to show TLE details & history
Last TLE update: 1 week ago

TLE from 1 week ago
0 DELTA 1 DEB
1 03051U 67114C   26151.40415840 -.00000018  00000-0  13348-3 0  9991
2 03051 101.1613 125.1552 0089735 151.9803   1.4893 12.62291411697145
Epoch: 2026-05-31T09:41Z
TLE epoch observation values (Epoch: 2026-05-31T09:41:59.285Z)
Latitude
25.99761°
Longitude
-83.75415°
Altitude
1,346.491 km
Speed
7.219 km/s
True Right ascension
20h 42m 35s
True Declination
25° 52' 22"
Sunlit
Object was in daylight at epoch
Visualization orbit readout
Latitude
Unknown
Longitude
Unknown
Altitude
Unknown
Speed
Unknown
Apparent Right ascension
Unknown
Apparent Declination
Unknown
Sunlit
N/A
Visualization observer readout
Local Sidereal Time
19:33:08
Azimuth
Unknown
Elevation
Unknown
Doppler factor
Unknown
Orbital elements
Apogee altitude
1,480.893 km
Perigee altitude
1,341.102 km
Semi-major axis
7,789.134 km
Eccentricity
0.00897
Inclination
101.1613°
RAAN
125.1552°
Arg. of periapsis
151.9803°
True anomaly
1.51633°
Mean anomaly
1.4893°
Eccentric anomaly
1.50278°
Mean motion
3.15725 °/min
Orbital period
114.02 mins
BSTAR
0.00013348
Loading maneuver chart data...
Computing Atmospheric mass density...
Loading historical data...
Loading historical data...
Loading historical data...
Loading historical data...
Loading historical data...
Loading historical data...
Loading historical data...
Other satellites on launch #114 in the year 1967 (1967-11-10 UTC)

Documentation

Showing up to 5 results
|